Flag for Russia Weather past 2 weeks in Murmansk, Russia

Now
34 °F

Scattered clouds.


Feels Like: 27 °F
Forecast: 31 / 37 °F
Wind: 8 mph from Northeast

Location: Murmansk Airport

Current Time: Apr 27, 2015 at 7:45:55 PM

Latest Report: Apr 27, 2015 at 7:00 PM


Visibility: N/A

Pressure: 29.71 "Hg

Humidity: 60%

Dew point: 21 °F

Location of MurmanskLocation

Historic Weather in Murmansk — Graph

°F

Murmansk temperature yesterday

Maximum temperature yesterday: 34 °F (at 1:30 PM)
Minimum temperature yesterday: 28 °F (at 4:00 AM)
Average temperature yesterday: 31 °F

Past Weeks' High & Low Weather Summary

 TemperatureHumidityPressure
High46 °F (Apr 13, 3:00 PM)100% (Apr 15, 3:00 AM)29.98 "Hg (Apr 15, 3:00 AM)
Low19 °F (Apr 24, 11:30 PM)36% (Apr 12, 6:00 PM)29.21 "Hg (Apr 23, 1:30 AM)
Average33 °F75%29.67 "Hg
* Reported Apr 12 6:00 PM — Apr 27 6:30 PM, Murmansk, Weather by CustomWeather, © 2015

Note: Actual official high and low records may vary slightly from our data, if they occured in-between our weather recording intervals... More about our weather records

Advertising

Murmansk weather history for previous 24 hours

 ConditionsComfort  
Time TempWeatherWind HumidityBarometerVisibility
6:30 PM
Mon, Apr 27
34 °FScattered clouds.6 mph60%29.71 "HgN/A
6:00 PM36 °FSnow flurries. Scattered clouds.3 mph52%29.71 "HgN/A
5:30 PM36 °FSnow flurries. Scattered clouds.3 mph56%29.71 "HgN/A
5:00 PM36 °FSnow flurries. Scattered clouds.No wind52%29.71 "HgN/A
4:30 PM36 °FSnow flurries. Scattered clouds.3 mph48%29.74 "HgN/A
4:00 PM36 °FScattered clouds.3 mph52%29.74 "HgN/A
3:30 PM34 °FScattered clouds.6 mph56%29.74 "HgN/A
3:00 PM36 °FScattered clouds.3 mph48%29.74 "HgN/A
2:30 PM36 °FSnow flurries. Scattered clouds.6 mph48%29.74 "HgN/A
2:00 PM34 °FSnow flurries. Scattered clouds.1 mph51%29.74 "HgN/A
1:30 PM34 °FSnow flurries. Scattered clouds.No wind51%29.77 "HgN/A
1:00 PM32 °FScattered clouds.1 mph55%29.77 "HgN/A
12:30 PM34 °FScattered clouds.1 mph51%29.77 "HgN/A
12:00 PM34 °FScattered clouds.1 mph51%29.77 "HgN/A
11:30 AM32 °FPartly sunny.6 mph55%29.77 "HgN/A
11:00 AM32 °FPartly sunny.3 mph55%29.77 "HgN/A
10:30 AM32 °FPartly sunny.3 mph55%29.77 "HgN/A
10:00 AM32 °FPartly sunny.3 mph55%29.77 "HgN/A
9:30 AM32 °FPartly sunny.3 mph55%29.77 "HgN/A
9:00 AM32 °FPartly sunny.1 mph55%29.77 "HgN/A
8:30 AM30 °FPartly sunny.1 mph64%29.80 "HgN/A
8:00 AM32 °FPartly sunny.1 mph60%29.80 "HgN/A
7:30 AM30 °FPartly sunny.1 mph69%29.80 "HgN/A
7:00 AM30 °FSnow flurries. Partly sunny.3 mph75%29.80 "HgN/A
6:30 AM30 °FSnow flurries. Partly sunny.1 mph80%29.80 "HgN/A
6:00 AM28 °FPartly sunny.No wind86%29.80 "HgN/A
5:30 AM28 °FPartly sunny.No wind86%29.80 "HgN/A
5:00 AM28 °FPartly sunny.1 mph86%29.80 "HgN/A
4:30 AM28 °FSnow flurries. Passing clouds.1 mph86%29.80 "Hg4 mi
4:00 AM28 °FSnow flurries. Passing clouds.1 mph86%29.80 "Hg6 mi
3:30 AM28 °FSnow flurries. Passing clouds.3 mph86%29.80 "Hg6 mi
3:00 AM28 °FSnow flurries. Passing clouds.1 mph86%29.80 "Hg4 mi
2:30 AM30 °FSnow flurries. Passing clouds.3 mph80%29.80 "HgN/A
2:00 AM30 °FPassing clouds.3 mph80%29.80 "HgN/A
1:30 AM30 °FPartly cloudy.No wind80%29.80 "HgN/A
1:00 AM30 °FPartly cloudy.No wind75%29.80 "HgN/A
12:30 AM30 °FPartly cloudy.3 mph80%29.80 "HgN/A
12:00 AM30 °FPartly cloudy.3 mph75%29.80 "HgN/A
11:30 PM
Sun, Apr 26
30 °FPartly cloudy.1 mph80%29.80 "HgN/A
11:00 PM30 °FPassing clouds.No wind80%29.80 "HgN/A
10:30 PM30 °FSnow flurries. Partly sunny.1 mph80%29.80 "HgN/A
10:00 PM30 °FSnow flurries. Partly sunny.1 mph80%29.80 "Hg4 mi
9:30 PM30 °FPartly sunny.3 mph80%29.80 "HgN/A
9:00 PM30 °FSnow flurries. Partly sunny.1 mph86%29.80 "HgN/A
8:30 PM30 °FSnow flurries. Partly sunny.3 mph86%29.80 "HgN/A
8:00 PM30 °FSnow flurries. Partly sunny.6 mph86%29.80 "Hg4 mi
7:30 PM32 °FPartly sunny.6 mph75%29.80 "HgN/A
7:00 PM32 °FBroken clouds.3 mph69%29.80 "HgN/A
Weather by CustomWeather, © 2015

See weather overviewHow to use our weather pages